TimeCST,TemperatureF,Dew PointF,Humidity,Sea Level PressureIn,VisibilityMPH,Wind Direction,Wind SpeedMPH,Gust SpeedMPH,PrecipitationIn,Events,Conditions,WindDirDegrees,DateUTC
12:53 AM,48.9,21.9,35,30.26,10.0,SE,6.9,-,N/A,,Clear,130,2013-11-08 06:53:00
1:53 AM,48.9,23.0,36,30.24,10.0,SE,11.5,-,N/A,,Clear,130,2013-11-08 07:53:00
2:53 AM,48.0,23.0,37,30.22,10.0,ESE,8.1,-,N/A,,Clear,120,2013-11-08 08:53:00
3:53 AM,48.9,23.0,36,30.20,10.0,SE,9.2,-,N/A,,Clear,130,2013-11-08 09:53:00
4:53 AM,48.9,21.9,35,30.20,10.0,SE,4.6,-,N/A,,Scattered Clouds,140,2013-11-08 10:53:00
5:53 AM,50.0,21.0,32,30.19,10.0,SE,6.9,-,N/A,,Partly Cloudy,130,2013-11-08 11:53:00
6:53 AM,51.1,21.0,31,30.20,10.0,SSE,5.8,-,N/A,,Scattered Clouds,150,2013-11-08 12:53:00
7:53 AM,51.1,21.0,31,30.20,10.0,SSE,5.8,-,N/A,,Overcast,150,2013-11-08 13:53:00
8:53 AM,53.1,24.1,32,30.20,10.0,SSE,10.4,-,0.00,Rain,Light Rain,150,2013-11-08 14:53:00
9:53 AM,55.0,21.9,28,30.20,10.0,SSE,11.5,-,0.00,,Scattered Clouds,150,2013-11-08 15:53:00
10:53 AM,57.9,25.0,28,30.19,10.0,SSE,12.7,-,0.00,Rain,Light Rain,160,2013-11-08 16:53:00
11:53 AM,57.9,35.1,42,30.17,10.0,South,11.5,23.0,0.00,,Scattered Clouds,170,2013-11-08 17:53:00
12:53 PM,57.0,41.0,55,30.13,10.0,SE,16.1,23.0,N/A,,Overcast,140,2013-11-08 18:53:00
1:53 PM,57.9,44.1,60,30.09,10.0,SE,18.4,-,N/A,,Overcast,140,2013-11-08 19:53:00
2:53 PM,55.9,44.1,64,30.07,10.0,SSE,18.4,-,N/A,,Mostly Cloudy,150,2013-11-08 20:53:00
3:53 PM,55.9,44.1,64,30.05,10.0,SE,15.0,-,N/A,,Partly Cloudy,140,2013-11-08 21:53:00
4:53 PM,55.9,44.1,64,30.03,10.0,SE,13.8,-,N/A,,Clear,130,2013-11-08 22:53:00
5:53 PM,54.0,43.0,66,30.02,10.0,SE,15.0,-,N/A,,Clear,140,2013-11-08 23:53:00
6:53 PM,51.1,43.0,74,30.03,10.0,SE,12.7,-,N/A,,Clear,130,2013-11-09 00:53:00
7:53 PM,48.9,43.0,80,30.03,10.0,SE,15.0,21.9,N/A,,Clear,130,2013-11-09 01:53:00
8:53 PM,46.9,42.1,83,30.03,10.0,SE,13.8,-,N/A,,Clear,130,2013-11-09 02:53:00
9:53 PM,46.0,42.1,86,30.01,10.0,SE,11.5,-,N/A,,Clear,140,2013-11-09 03:53:00
10:53 PM,45.0,42.1,90,30.01,10.0,SE,8.1,-,N/A,,Clear,130,2013-11-09 04:53:00
11:53 PM,44.1,42.1,93,30.01,10.0,SE,8.1,-,N/A,,Clear,130,2013-11-09 05:53:00